Theta_e
368 367 367 367 367 366 367 365 364 363 362 360 359 359 359 359 358 356 354 353 352 352 351 350 349 347 346 346 345 344 343 342 342 340 338 338 338 337 338 338 337 336 336 336 336 336 336 336 336 336 337 338 337 337 336 336 337 337 336 336 335 336 335 336 338 339 338 337 337 336 334 333 333 332 331 332 331 332 332 333 333 333 333 333 332
367 367 367 368 368 367 367 366 364 363 362 360 360 359 359 359 358 355 354 353 352 352 352 350 349 349 348 346 345 344 343 342 342 341 340 338 338 337 338 338 338 337 336 337 337 336 336 336 336 336 337 337 337 337 337 336 337 336 334 335 334 334 335 335 337 338 338 337 337 336 335 334 334 333 332 332 332 332 332 332 332 333 333 333 333
367 367 367 368 368 367 367 367 365 364 362 360 360 359 359 358 357 355 353 352 353 353 352 351 350 349 348 347 345 343 343 342 341 342 341 339 338 337 337 338 338 338 337 337 337 337 337 337 337 337 336 336 336 336 336 336 336 335 333 333 334 335 335 335 335 336 337 336 335 335 335 334 334 334 333 333 332 332 333 332 332 332 333 333 333
367 369 369 368 367 367 367 368 367 365 363 361 359 359 359 358 357 355 353 352 352 353 353 352 351 350 349 348 345 343 343 343 342 341 341 341 339 339 339 338 338 338 337 337 338 338 338 338 338 337 337 336 336 335 335 335 334 334 333 334 336 336 336 334 334 334 335 335 334 334 333 333 333 334 334 334 333 332 333 333 332 331 332 332 332
366 369 369 368 367 367 367 368 367 366 364 361 359 359 359 358 357 354 353 353 353 353 353 353 352 350 349 348 345 344 343 343 342 341 341 341 341 340 340 340 339 339 339 339 339 339 338 338 337 337 336 335 335 335 335 334 333 333 333 334 336 336 335 334 334 334 334 334 334 334 333 333 333 333 333 334 334 333 334 334 333 331 331 331 332
364 368 369 368 367 368 367 366 367 366 364 362 360 359 358 358 358 356 354 352 353 354 354 353 353 351 349 348 346 344 343 343 343 342 342 342 341 341 340 339 339 340 340 339 339 339 338 338 337 336 336 335 335 335 334 333 333 333 333 335 336 335 334 334 334 334 334 334 334 334 333 334 335 334 334 334 334 334 334 334 333 332 332 332 331
361 366 369 370 369 370 369 367 367 366 365 363 361 359 358 358 358 357 354 353 353 354 354 354 353 352 350 348 346 345 344 343 343 343 342 341 340 338 337 338 339 340 340 339 339 339 338 338 337 336 335 335 335 334 334 333 333 333 334 335 335 334 333 334 334 335 335 335 335 335 335 335 335 335 334 334 334 334 334 333 332 331 331 331 331
360 364 368 370 370 371 371 369 368 367 366 364 362 360 358 356 357 357 356 354 354 352 353 354 354 352 350 348 346 345 344 344 344 343 341 338 336 335 336 338 340 340 340 339 339 339 339 338 337 335 334 334 334 334 334 333 333 333 334 334 334 334 333 332 333 334 335 335 335 335 335 334 333 333 333 333 333 334 333 332 332 330 329 330 330
358 362 367 370 371 371 371 371 369 368 366 364 362 361 358 355 355 357 357 356 354 351 352 355 355 352 350 348 346 344 343 344 344 343 340 336 335 336 337 339 341 341 340 339 339 339 338 337 336 334 334 334 333 334 333 333 333 333 333 333 334 333 332 330 330 332 333 334 334 334 334 333 333 332 333 332 332 332 332 331 331 331 331 330 330
354 357 362 367 370 371 372 371 369 367 366 364 362 361 359 355 355 356 357 357 355 352 353 356 355 352 351 349 347 345 345 346 345 343 339 334 333 337 340 340 341 341 340 340 339 339 338 337 336 335 334 334 333 333 333 332 333 333 332 333 333 330 329 329 329 331 333 334 334 334 333 333 332 332 332 331 331 330 330 330 331 331 330 330 330
354 354 358 364 368 370 371 371 370 368 366 365 362 360 359 356 355 356 357 356 354 353 354 356 355 353 352 351 349 349 348 346 344 341 337 331 331 337 341 341 342 342 341 340 339 339 338 337 336 335 335 335 334 333 333 332 332 333 332 332 329 327 327 329 331 332 333 333 333 333 333 332 331 331 331 331 330 330 330 330 330 331 330 330 330
355 354 358 364 369 371 371 372 371 369 367 365 363 361 359 357 356 355 356 356 355 354 355 356 355 354 353 352 350 348 347 344 342 340 336 330 330 339 342 342 343 342 341 341 340 339 338 337 336 335 335 334 334 333 333 331 331 331 331 330 330 330 330 331 331 332 333 333 332 331 331 330 331 331 331 332 331 330 330 330 330 330 330 330 329
356 356 360 366 371 373 372 373 372 370 368 365 363 362 360 358 358 357 358 358 357 356 355 354 354 352 351 350 348 345 344 342 339 338 334 328 329 339 344 343 343 342 341 341 340 339 338 337 336 336 335 335 335 334 333 332 331 331 331 333 334 333 331 330 329 330 332 332 331 330 330 330 332 333 332 332 331 330 330 329 329 328 328 327 326
360 359 363 367 373 374 373 373 372 370 368 366 365 364 361 361 361 360 359 359 357 356 354 353 352 350 348 346 344 342 341 339 337 336 334 328 327 336 344 344 343 342 341 341 340 340 338 337 336 337 337 337 336 336 335 334 333 333 334 335 334 332 330 329 330 330 331 331 331 331 331 331 332 333 332 330 330 329 327 326 325 325 325 324 324
362 362 366 372 376 376 374 372 371 370 369 367 366 364 362 361 361 359 358 357 357 355 353 351 350 348 345 343 342 341 340 340 338 335 334 330 325 330 339 343 342 340 341 341 340 339 338 338 338 338 339 338 336 336 338 338 337 337 337 337 336 334 334 334 333 333 332 332 331 331 330 330 331 331 330 328 326 325 323 322 322 323 323 324 324
367 369 374 376 375 374 373 371 370 369 368 367 366 363 362 362 360 358 356 355 355 354 352 351 349 346 344 342 341 341 340 340 338 336 335 333 328 327 334 340 340 340 342 341 338 338 338 339 340 339 338 337 335 336 338 338 338 338 338 337 337 336 335 334 332 332 331 331 330 330 329 330 330 328 326 325 323 321 320 321 322 322 323 324 325
373 375 377 374 371 371 370 369 368 367 366 365 364 363 362 361 359 358 356 354 354 352 351 350 348 346 344 343 343 342 341 340 339 338 337 336 332 329 334 339 340 340 340 338 336 337 338 340 340 339 338 337 336 337 337 336 337 338 337 336 335 333 332 331 330 330 330 329 329 328 328 328 327 326 324 323 321 320 321 321 321 322 323 324 325
375 377 376 372 369 369 368 367 366 365 364 363 363 362 361 360 359 358 356 355 354 352 351 350 347 346 344 343 343 343 342 341 340 339 339 339 336 333 335 338 340 339 338 338 338 337 337 337 339 340 339 338 337 338 337 336 336 336 335 334 333 332 331 330 330 329 329 328 328 327 327 326 325 323 322 321 320 321 322 322 321 322 323 325 325
376 377 375 371 368 367 366 365 364 363 362 361 360 360 360 359 359 358 357 356 354 353 352 350 348 346 344 343 344 343 343 343 341 339 339 339 338 336 336 338 339 338 339 339 338 337 336 336 339 340 339 338 337 337 336 334 333 333 333 333 332 331 330 329 329 328 328 327 326 324 323 322 321 321 321 322 322 322 322 322 322 322 324 325 326
375 375 373 370 367 366 365 364 363 362 360 359 359 359 358 358 357 355 354 353 352 351 350 348 347 346 345 344 344 343 343 344 343 341 340 339 338 338 337 338 339 339 340 339 338 337 336 335 337 336 336 337 337 334 332 330 330 332 332 331 330 330 329 328 327 326 325 323 322 320 320 320 321 322 323 322 322 321 321 321 322 323 324 325 323
373 373 372 370 366 365 365 363 361 360 358 358 357 357 356 355 353 353 352 351 350 349 349 347 346 346 345 344 344 343 343 344 344 342 340 340 340 338 338 339 340 339 339 338 337 335 333 334 335 334 334 336 334 330 327 327 328 329 328 327 327 327 327 325 324 322 320 320 319 318 319 321 322 322 321 320 320 320 320 320 320 321 321 320 318
371 371 371 369 366 365 364 362 360 357 356 356 355 354 354 353 352 351 350 349 349 349 348 346 346 346 345 344 344 344 343 343 342 341 340 340 340 338 338 339 339 337 337 337 335 333 333 333 334 334 335 335 331 328 326 325 324 325 325 323 322 322 322 321 320 318 317 317 318 319 321 321 321 320 320 320 320 319 319 318 318 317 317 315 314
369 369 369 367 365 363 362 361 358 356 356 356 354 354 353 352 351 350 349 349 349 348 346 345 344 345 345 344 343 343 343 341 339 339 339 339 339 338 337 338 338 337 336 336 335 334 334 334 334 335 336 334 331 328 326 323 322 323 322 320 319 319 318 317 316 315 315 317 319 321 321 321 320 320 319 319 318 318 317 317 316 315 315 314 314
366 366 366 364 362 361 360 360 358 357 356 356 355 354 353 351 350 349 349 349 349 348 346 345 344 343 343 343 342 341 342 341 338 337 337 337 337 337 336 336 337 337 335 335 335 336 336 335 335 335 335 333 330 328 324 322 322 321 319 318 318 317 315 315 315 316 317 319 321 321 320 319 318 317 317 317 316 315 315 314 314 314 314 314 314
365 364 363 361 360 359 359 358 357 357 356 355 354 353 352 351 350 348 347 347 346 345 344 343 342 340 339 339 339 340 341 341 338 336 336 334 334 336 336 336 336 335 334 333 334 336 336 335 335 334 333 331 328 325 323 321 320 319 319 319 318 315 315 315 316 317 319 320 319 318 317 316 316 316 316 315 314 314 314 314 314 314 313 312 312
363 362 361 359 358 358 357 356 355 355 354 353 353 351 350 349 348 346 345 344 343 343 342 340 339 338 337 338 339 341 342 340 337 335 335 334 334 335 335 335 335 334 332 332 333 334 334 334 333 331 329 327 324 323 321 320 320 319 319 318 317 316 316 317 317 319 319 318 316 315 315 316 316 315 315 314 314 314 314 313 312 312 311 311 311
360 359 358 357 355 355 355 353 353 353 352 352 351 349 347 346 345 344 343 341 341 342 341 339 339 338 337 337 338 341 342 340 338 336 335 335 334 334 333 333 333 331 329 330 332 332 331 330 328 324 323 323 322 321 319 319 319 319 318 318 317 317 318 318 318 319 319 317 315 315 315 315 315 314 313 313 313 313 312 311 310 311 310 310 310
359 357 356 355 353 353 352 352 352 351 351 350 348 347 346 344 343 342 341 339 340 341 340 339 339 338 337 336 339 342 342 340 338 337 336 335 335 334 332 331 330 329 328 329 331 331 328 325 322 321 321 321 320 320 320 320 321 321 320 320 320 320 319 319 318 319 318 317 316 316 315 314 312 311 311 312 311 311 310 309 310 309 309 309 310
358 356 355 353 352 352 351 351 351 350 347 344 343 343 343 343 342 340 339 339 340 340 340 339 337 337 336 335 337 340 341 340 339 337 336 334 334 332 331 329 328 328 328 328 329 328 325 322 322 322 322 322 322 323 323 323 323 323 322 322 321 320 319 318 318 318 317 316 315 314 313 311 310 310 310 310 309 309 309 308 308 308 309 310 312
357 355 354 352 351 351 350 348 348 347 344 340 339 338 340 341 342 339 338 338 339 339 338 336 336 337 337 336 337 339 339 340 339 337 335 333 332 331 330 330 329 329 328 327 328 327 326 325 325 325 325 325 326 325 324 324 323 322 322 321 320 319 318 317 316 315 314 314 313 311 310 309 309 309 309 309 309 308 308 308 308 308 309 311 312
355 354 352 351 350 349 347 346 346 345 342 340 339 337 336 337 337 336 337 337 336 337 338 336 335 335 336 337 337 338 338 338 338 336 335 334 332 332 331 331 330 328 327 327 328 328 328 328 327 326 326 326 325 324 323 322 320 319 319 318 318 317 317 315 314 313 312 312 311 310 310 309 309 309 308 308 308 308 307 308 308 308 309 310 311
353 352 351 350 348 347 346 345 346 345 343 341 339 337 336 334 332 332 334 335 335 335 335 335 334 334 334 336 337 337 336 337 336 336 336 334 332 331 331 330 328 327 327 328 328 327 327 326 326 325 325 325 324 322 320 320 319 318 318 317 317 317 315 314 313 312 311 310 309 309 309 309 309 308 308 307 307 307 308 308 308 308 309 310 310
351 350 349 348 347 347 346 346 345 345 343 342 341 340 338 336 333 331 330 332 333 333 332 332 333 333 332 333 335 334 334 335 335 336 335 333 331 329 329 328 328 327 326 326 325 325 325 325 326 326 325 324 323 321 319 319 318 318 318 317 317 316 314 313 312 311 310 309 309 309 309 308 308 307 307 307 308 308 308 308 308 308 309 309 309
348 348 349 348 347 347 346 344 345 344 343 342 342 342 340 340 337 332 329 329 330 329 328 329 331 331 330 330 331 331 331 331 332 333 333 332 330 328 328 327 326 324 322 322 323 325 326 325 325 325 323 322 321 320 319 319 318 318 318 317 317 316 314 312 311 310 309 308 308 308 307 306 307 307 307 308 308 308 307 308 308 308 309 308 309
348 348 348 347 347 347 345 343 343 344 344 343 342 341 341 341 339 336 332 330 329 327 325 325 327 329 329 328 328 327 327 327 329 331 331 331 330 328 325 323 322 320 319 320 323 325 325 324 323 322 321 321 320 320 319 319 318 318 317 316 315 315 313 312 311 310 309 308 307 306 305 305 307 308 308 307 307 307 307 307 308 308 307 308 309
348 348 348 347 346 345 344 342 342 344 344 343 342 340 341 340 339 337 334 332 332 329 325 323 324 326 326 327 326 325 324 325 327 328 329 329 328 326 323 321 322 322 321 321 322 323 322 322 321 320 320 320 319 319 319 319 318 317 317 315 314 313 312 311 310 309 308 306 305 302 303 305 308 308 307 307 307 306 306 307 307 307 307 308 309
348 348 347 347 345 344 343 343 342 343 343 343 342 341 340 340 339 336 334 333 333 330 324 321 322 323 323 324 324 324 324 325 326 327 327 326 324 323 322 323 325 325 324 323 322 322 322 322 321 320 319 319 318 318 318 317 317 316 316 315 314 313 311 310 309 308 306 305 303 303 305 307 308 307 306 306 306 306 306 306 306 307 307 308 308
347 346 346 344 343 343 342 342 342 342 341 341 341 340 340 340 338 335 334 334 333 329 324 323 323 322 322 322 323 323 324 325 325 325 324 323 321 320 323 326 327 325 325 324 323 322 322 321 320 319 319 319 318 318 317 316 316 314 314 313 313 312 310 309 308 307 306 305 306 307 308 307 306 306 306 306 305 305 306 306 306 307 308 308 308
344 344 344 343 342 342 341 341 341 341 340 340 340 339 339 338 337 335 335 335 333 330 328 327 327 325 323 322 322 322 322 322 322 321 321 321 320 320 322 325 326 325 325 324 323 322 321 320 319 319 319 318 318 317 316 315 314 313 313 312 312 311 309 308 307 307 307 306 307 307 306 306 306 306 305 305 305 305 305 306 306 307 307 308 308
343 343 343 343 343 342 341 340 339 339 339 338 337 337 336 335 333 334 336 336 334 332 330 329 329 327 324 323 323 322 321 321 322 321 321 320 320 320 321 322 324 324 324 323 322 321 320 319 319 318 318 317 317 316 315 314 313 312 312 311 311 310 308 307 306 305 306 306 306 306 306 306 305 305 304 304 304 305 305 306 306 306 307 307 307
343 342 342 342 341 340 338 337 337 337 337 337 336 336 335 335 335 336 337 336 334 332 331 331 331 327 324 324 324 323 322 323 323 323 323 322 321 321 321 321 322 324 324 322 321 320 319 319 318 317 317 317 316 315 314 314 313 312 311 310 310 308 307 305 304 304 304 305 306 306 306 305 305 304 304 304 305 305 305 305 306 306 307 307 307
339 338 338 339 338 337 335 335 335 335 335 336 336 335 335 336 337 336 336 335 333 332 333 333 332 328 325 324 323 322 323 324 325 325 324 323 322 322 321 321 322 323 323 321 320 319 319 318 318 317 317 317 316 315 315 314 313 312 311 310 309 307 305 304 304 304 305 305 306 306 305 305 304 304 304 304 305 305 305 305 305 306 307 307 307
334 335 336 336 335 335 335 335 336 336 335 335 335 335 335 335 335 334 333 333 332 332 333 333 332 330 327 325 322 322 323 325 326 326 325 324 323 323 322 322 323 323 322 321 320 319 319 319 318 317 317 316 316 316 315 314 312 311 310 309 308 306 304 303 304 304 305 305 306 305 304 304 304 304 304 304 305 304 305 305 306 306 306 306 307
334 334 334 334 336 337 337 337 337 337 336 336 335 334 334 334 333 333 332 332 331 331 332 332 331 329 326 324 322 321 322 324 326 327 326 325 324 323 323 323 323 322 321 321 320 320 319 319 318 318 317 316 315 315 314 313 311 310 308 307 305 304 302 302 303 303 304 305 305 305 304 304 304 304 304 304 304 304 305 305 306 306 306 306 306
333 333 334 335 336 336 336 337 337 337 336 335 335 334 333 333 332 330 330 330 329 328 330 331 330 328 326 325 323 322 321 322 325 326 326 325 324 323 323 323 323 322 321 320 320 320 319 318 318 317 316 315 315 313 312 311 310 309 307 305 303 302 302 302 303 304 305 305 304 304 304 304 304 304 304 304 305 305 305 305 306 306 306 305 305
333 333 334 334 334 334 335 336 335 335 334 333 333 332 330 330 330 329 329 329 328 327 328 330 330 328 327 326 324 323 323 323 324 325 325 324 323 323 323 322 322 321 321 320 320 319 318 317 317 316 315 314 314 313 311 310 309 307 305 303 302 301 301 302 303 304 304 304 304 305 305 304 304 304 304 305 305 305 305 306 306 306 305 304 305
332 331 332 332 332 333 334 333 332 331 330 330 330 329 328 328 328 328 328 328 328 328 328 328 328 328 327 326 325 325 325 324 324 325 325 324 323 322 322 322 322 321 320 319 319 318 317 317 316 315 314 313 313 312 311 309 308 306 304 302 301 300 300 301 303 304 303 302 303 303 302 302 302 303 305 305 305 304 305 305 306 305 304 304 305
329 328 328 329 330 331 330 329 328 328 328 328 328 327 327 327 327 327 328 328 327 327 326 326 326 326 326 325 325 325 325 325 325 325 324 323 322 322 322 322 321 321 320 319 318 317 316 316 315 314 313 313 312 312 311 310 308 306 303 301 300 300 299 300 301 301 300 298 298 297 298 299 302 304 305 305 305 305 305 305 305 304 304 304 305
329 328 328 329 329 329 328 328 327 327 326 327 327 327 327 327 327 327 327 327 326 325 325 324 324 324 324 323 324 323 323 324 324 323 323 322 322 321 321 321 321 321 320 319 318 317 315 314 314 313 312 312 312 311 310 309 308 306 303 301 301 300 300 299 299 299 298 296 296 296 298 301 302 303 305 305 305 305 305 304 303 303 304 305 305
329 328 328 328 327 327 326 327 327 326 325 326 327 327 326 326 325 325 325 325 324 323 323 322 321 321 322 322 322 321 321 321 321 321 321 321 320 320 321 321 321 320 320 318 317 316 314 313 313 313 312 312 312 311 310 309 308 306 303 302 301 301 300 300 300 298 297 296 296 296 297 299 301 302 304 305 306 305 304 302 301 302 304 305 305
327 327 327 326 326 326 326 327 327 327 326 326 326 326 325 323 323 323 323 322 321 320 320 319 318 318 319 319 318 318 318 318 318 318 319 319 319 319 320 320 320 320 319 318 316 314 313 313 313 312 312 312 311 310 310 309 307 306 304 302 302 301 301 301 300 298 296 296 296 295 295 297 300 303 305 305 305 305 304 302 302 303 304 305 305
Wind_Speed
34 35 33 32 32 32 32 32 31 30 29 29 29 27 27 28 28 27 27 28 28 28 29 29 30 29 27 25 24 24 24 24 23 24 23 22 21 20 18 18 18 17 15 14 12 11 11 10 9 9 9 9 9 8 8 7 6 7 8 9 9 8 8 9 8 9 12 13 13 14 14 15 16 15 15 15 15 15 16 18 19 21 22 23 24
35 36 34 33 33 33 32 32 32 32 31 29 28 28 29 30 30 29 30 31 31 31 32 31 30 29 28 26 26 26 27 26 25 24 25 24 23 22 19 18 18 18 17 16 15 13 12 11 10 9 9 9 10 9 9 8 7 8 9 9 7 6 7 8 7 9 13 15 15 15 16 16 16 16 16 15 15 14 15 17 19 20 21 22 23
35 36 35 34 34 33 32 32 33 33 32 30 28 29 31 32 32 32 32 32 32 33 33 32 31 30 29 28 28 28 28 28 27 25 25 25 25 23 21 19 18 17 17 17 16 14 13 13 12 10 10 9 9 9 9 8 8 9 9 8 7 7 7 7 8 9 12 16 18 19 19 20 20 21 20 17 17 17 17 18 19 19 20 21 22
34 35 36 35 35 34 33 32 33 33 31 30 31 31 31 32 34 35 34 33 34 34 34 32 32 32 31 30 30 30 29 29 28 26 25 25 25 24 22 20 19 19 19 18 17 16 15 14 13 11 10 10 10 9 8 8 9 9 9 9 8 8 9 10 10 11 11 14 20 22 22 23 24 25 25 22 19 19 18 19 19 19 20 20 20
34 35 35 35 34 34 34 33 33 33 32 32 34 34 32 32 34 36 36 35 35 35 34 33 32 33 33 31 31 31 31 30 29 27 26 25 25 25 23 21 21 20 20 19 18 17 17 15 14 12 12 11 10 9 8 8 9 10 9 8 8 9 12 13 13 14 14 16 20 22 23 23 24 25 24 22 21 20 19 19 19 20 20 20 20
34 34 34 34 34 35 36 35 34 33 34 34 35 36 34 33 34 37 38 37 35 34 34 34 33 34 34 33 33 33 32 32 31 29 27 26 26 25 23 22 22 21 20 19 18 18 17 16 14 13 12 11 11 10 9 8 9 9 9 8 8 10 12 13 14 15 17 19 20 22 23 24 23 22 21 19 20 20 19 19 20 20 19 20 20
35 35 35 34 34 35 36 37 36 35 37 37 36 37 37 35 35 37 38 37 36 34 34 34 34 34 34 34 34 34 33 32 32 31 29 27 27 25 23 22 22 22 21 20 19 18 17 17 15 14 13 13 13 11 10 9 9 10 9 9 9 10 11 13 15 16 18 19 20 21 22 21 20 20 20 19 18 18 17 18 19 19 19 19 19
35 36 35 34 34 36 36 37 38 38 39 38 38 38 38 38 37 37 37 37 37 35 34 34 35 34 34 35 35 34 34 33 32 33 31 28 27 25 23 23 22 22 21 20 19 18 17 17 16 16 16 16 16 14 13 12 12 10 10 10 11 12 14 16 17 17 19 20 20 20 20 20 20 21 20 18 17 17 17 17 19 20 21 20 20
35 36 36 35 35 36 36 36 37 39 39 39 39 40 40 40 39 37 36 36 36 34 32 32 35 35 33 34 35 34 34 33 33 34 33 30 27 24 23 23 23 22 21 20 19 18 18 18 17 17 18 18 17 17 16 15 14 13 13 13 14 16 18 19 20 20 20 20 20 19 18 19 20 20 18 17 17 17 18 17 18 19 18 19 20
36 36 37 36 36 36 36 35 35 37 39 40 41 41 41 40 39 37 36 36 33 32 30 30 35 37 34 33 34 33 33 33 34 35 34 31 28 24 23 24 23 22 21 20 20 19 19 18 18 17 17 17 17 18 18 17 17 17 17 17 19 20 21 22 23 22 20 18 18 18 17 17 18 18 17 18 18 17 16 15 16 17 17 18 20
37 35 35 36 36 36 36 35 35 36 39 40 40 41 39 37 36 35 34 33 31 30 29 28 32 35 33 32 32 32 31 31 33 35 34 32 28 25 23 23 23 23 21 20 19 20 20 19 19 18 18 17 18 18 19 19 19 19 20 21 23 23 24 23 23 22 19 17 17 17 16 17 18 19 19 19 17 16 15 15 16 18 17 15 16
39 37 36 36 36 37 37 36 35 36 37 38 38 37 35 32 30 30 29 28 28 28 28 27 27 28 28 28 28 29 29 30 32 34 33 32 29 25 23 22 23 22 21 20 19 20 20 20 19 19 19 19 19 19 20 20 20 20 21 23 24 24 24 23 23 23 21 18 17 18 19 20 20 19 19 17 16 16 17 16 16 16 16 15 16
38 38 36 37 37 36 36 36 34 34 35 36 34 32 31 28 27 27 26 25 24 24 24 24 24 24 24 24 25 25 26 27 30 31 31 31 29 26 23 21 21 21 20 20 20 20 20 19 18 17 17 18 18 19 21 22 22 22 23 23 23 23 22 22 24 26 26 23 22 22 24 23 20 18 18 17 16 16 14 15 16 16 18 18 20
36 37 35 35 35 34 34 35 33 33 33 31 29 28 29 27 25 24 23 20 20 20 19 20 22 22 22 22 23 22 22 23 26 28 29 29 28 28 25 21 19 19 19 20 20 19 19 19 18 16 15 16 18 20 23 25 24 23 21 20 20 21 21 22 23 24 25 26 27 27 27 25 22 22 20 17 15 13 13 16 19 19 20 21 22
32 33 31 31 31 32 34 34 32 31 30 27 26 29 29 26 22 21 18 16 16 16 16 17 19 21 20 20 21 20 19 20 24 26 27 27 27 29 29 24 19 17 18 18 17 17 17 17 17 16 16 18 21 22 24 24 21 19 17 18 18 18 18 19 20 20 21 21 22 23 24 23 22 21 17 13 14 16 18 20 20 20 21 22 22
28 29 28 28 30 34 38 35 30 28 27 25 25 28 27 22 20 19 17 15 14 15 16 15 16 18 19 18 19 19 18 19 22 25 26 26 26 29 30 27 21 19 19 19 17 16 16 16 16 17 18 20 23 23 22 21 19 16 16 17 17 16 17 19 19 19 19 19 20 21 22 21 19 16 15 15 18 21 20 19 20 21 20 18 18
26 28 26 27 30 33 37 35 30 27 26 24 23 24 22 20 19 20 20 17 15 15 16 15 16 17 17 17 17 16 16 17 20 23 25 25 27 29 30 27 24 23 22 20 18 17 16 16 16 18 19 21 21 21 20 20 18 16 15 14 15 16 18 18 17 16 16 17 17 18 19 19 18 17 19 21 22 21 18 19 22 23 19 15 14
26 26 25 27 29 30 32 33 31 29 26 24 22 20 20 20 19 19 19 18 17 16 15 16 17 17 17 17 17 17 16 17 19 22 25 26 27 29 29 26 25 24 21 18 17 17 17 17 17 18 19 18 18 19 19 19 18 16 13 12 14 15 16 15 13 12 13 13 13 14 15 17 18 20 21 22 20 19 20 24 26 24 19 15 15
27 26 24 26 28 27 28 30 30 28 24 23 21 19 18 17 16 17 16 15 15 14 14 14 16 17 17 17 18 18 17 16 17 21 24 25 26 27 27 24 22 20 17 15 16 17 17 17 18 19 18 16 16 19 19 18 16 14 11 10 12 13 12 11 10 10 11 13 14 16 17 18 19 20 20 20 19 19 22 26 28 26 22 19 19
30 28 25 25 28 29 29 28 27 24 21 20 20 19 17 16 15 13 12 12 11 11 12 12 13 13 13 14 15 17 17 16 17 19 21 22 24 24 23 21 18 16 15 15 16 16 16 18 20 18 16 16 18 20 18 16 14 13 11 11 12 13 12 12 12 12 13 15 17 18 18 18 18 17 17 18 18 19 21 22 22 21 20 19 18
32 30 27 26 27 27 26 25 23 21 20 20 20 19 18 16 15 14 13 13 13 12 12 11 11 11 12 12 12 14 15 14 15 16 18 20 22 23 21 19 17 17 16 15 16 16 15 17 17 15 15 17 18 16 14 13 13 14 14 14 14 15 15 16 17 16 16 16 17 17 16 16 16 16 16 17 18 19 20 17 13 12 14 16 18
31 31 29 26 26 26 26 27 25 23 23 24 22 21 19 18 18 18 17 17 17 15 15 13 12 11 12 11 11 11 12 13 13 14 16 17 20 23 21 17 16 17 16 15 16 16 14 14 14 15 16 16 13 11 10 11 12 14 15 16 16 17 17 17 17 15 14 14 14 14 14 15 16 17 17 18 18 17 16 15 14 17 20 22 23
32 31 29 27 26 26 27 28 26 23 24 24 22 22 22 22 22 21 20 20 20 19 17 15 13 13 13 13 13 12 13 13 12 12 14 15 18 22 22 18 16 16 15 14 13 12 11 13 17 19 18 15 11 9 9 10 12 14 15 15 16 15 14 14 14 13 13 14 14 14 14 15 16 17 17 16 15 15 16 17 20 23 24 24 24
30 28 27 26 25 23 23 24 22 21 21 19 18 19 20 20 22 21 19 20 20 19 18 17 15 14 15 15 14 13 13 14 12 11 12 13 15 18 21 21 17 14 13 10 8 9 9 11 14 16 15 13 10 9 9 10 12 13 13 13 12 11 11 12 11 10 11 12 12 12 14 15 16 16 16 15 16 18 20 21 22 22 21 21 22
28 26 25 24 24 22 21 21 22 22 21 18 17 18 16 16 18 16 13 14 15 15 14 14 13 11 12 14 13 12 13 14 15 14 13 13 14 16 21 23 19 15 12 9 8 10 10 9 10 12 12 11 10 9 9 10 11 11 11 11 10 8 9 9 9 10 10 10 9 12 15 16 16 16 17 19 21 22 22 21 20 19 19 20 22
27 26 25 24 23 21 21 21 22 22 20 17 15 16 15 14 15 15 12 10 11 11 11 11 10 10 11 13 15 16 15 14 16 16 16 16 16 17 20 23 22 18 14 11 10 11 10 9 10 10 9 9 8 8 8 9 10 10 9 9 9 9 9 9 9 10 11 10 9 11 13 14 14 16 19 21 22 21 19 19 19 19 18 19 22
28 26 25 24 22 21 20 20 20 18 17 16 14 13 14 14 14 14 12 11 11 12 12 12 12 12 12 13 16 19 17 14 15 16 16 16 17 17 18 21 22 19 16 13 12 11 11 9 8 7 8 8 8 8 8 9 9 9 8 9 10 9 9 10 10 11 13 13 12 12 12 12 13 17 19 20 19 18 17 18 18 19 19 21 22
28 26 24 22 21 21 20 20 20 18 18 17 14 13 14 14 14 12 11 12 13 14 13 13 14 14 13 13 15 19 18 14 14 16 16 16 18 19 19 21 21 18 16 15 13 12 10 8 7 8 9 9 9 9 9 9 11 10 9 10 11 10 9 10 12 15 17 17 14 12 10 10 14 17 18 18 18 18 17 17 18 20 21 22 21
26 25 23 21 20 19 19 20 21 20 17 15 14 13 12 14 16 14 10 11 14 15 14 13 13 13 14 14 15 18 17 15 15 15 14 16 19 22 22 22 21 18 16 15 15 13 10 9 9 10 10 11 12 11 11 12 15 15 13 13 13 12 11 12 13 13 12 9 8 8 10 13 16 17 17 17 17 17 17 17 19 21 22 21 20
24 23 21 21 21 21 20 20 20 19 19 19 18 15 11 13 17 16 11 11 12 13 12 10 6 5 7 10 15 18 17 16 16 14 12 14 19 21 20 19 18 17 17 16 15 12 11 11 13 14 14 13 12 11 11 13 13 13 12 11 11 10 11 9 5 6 8 8 10 12 14 16 16 16 16 17 17 17 17 19 19 19 20 20 19
22 21 21 22 23 23 22 22 20 20 21 21 20 19 17 16 17 16 12 10 10 9 8 7 5 4 5 7 14 18 16 15 15 15 16 17 18 18 18 17 16 17 18 18 16 12 12 13 13 13 12 11 10 9 10 10 6 4 5 6 7 11 9 4 3 8 9 11 14 16 15 15 15 16 16 16 16 17 18 18 18 18 19 19 18
21 21 21 24 26 24 23 24 23 22 22 21 20 20 19 17 15 13 11 10 9 9 8 6 6 5 5 8 15 18 17 16 17 19 20 20 18 18 18 17 16 16 18 19 15 11 11 12 12 10 9 9 9 9 9 7 5 5 5 5 9 11 6 1 4 8 10 14 16 14 13 14 15 15 15 15 16 18 18 17 18 19 19 18 17
19 20 21 25 27 24 22 24 25 23 24 23 19 17 16 14 12 11 11 10 9 8 8 8 8 8 8 10 14 16 17 17 18 19 19 18 16 17 18 18 17 18 19 18 13 10 11 11 10 8 8 9 11 10 7 5 4 6 7 7 9 10 4 3 8 10 11 13 14 13 12 13 13 13 14 15 16 17 16 17 18 18 17 16 17
18 22 25 27 25 21 20 24 25 24 24 23 20 17 15 14 14 14 13 10 9 8 8 9 11 11 10 11 12 13 14 15 15 16 17 17 17 18 19 18 17 16 15 13 10 9 9 8 8 7 7 7 7 5 4 2 1 4 7 9 11 11 5 3 8 11 12 11 11 10 12 13 14 14 16 16 15 15 16 17 18 17 16 17 18
19 23 25 25 22 19 20 23 22 22 23 22 20 18 16 15 16 18 15 12 11 9 9 11 13 13 12 12 13 12 12 12 13 15 16 18 18 19 18 17 15 12 11 11 11 9 7 6 6 5 4 4 4 4 5 4 3 4 6 9 12 13 7 5 7 9 11 11 10 11 13 14 14 15 15 15 15 15 16 17 16 17 18 18 18
19 20 21 21 18 16 18 20 19 20 22 20 18 17 17 15 15 15 15 14 13 12 12 14 15 15 14 14 14 14 13 13 14 16 17 18 19 19 17 14 11 11 11 12 11 9 8 7 5 3 3 3 3 3 4 5 6 7 8 10 14 13 10 8 7 7 12 14 12 13 14 15 14 14 14 14 15 15 16 16 17 18 19 19 19
17 17 19 18 15 15 18 19 17 19 20 19 17 16 16 15 15 15 15 15 15 15 16 17 17 16 15 15 15 15 15 16 17 18 19 19 19 19 16 12 12 13 14 13 11 10 10 9 5 2 2 3 4 5 5 6 7 8 9 11 11 8 6 7 7 9 13 15 14 13 14 13 12 12 13 14 15 15 15 16 17 18 19 19 19
16 17 18 17 16 17 19 20 20 20 19 18 17 15 14 15 17 17 17 18 17 16 16 16 16 15 16 17 17 17 18 18 19 20 20 19 20 19 15 11 11 12 12 12 13 13 12 7 3 2 3 4 5 5 5 5 7 8 8 7 6 3 5 6 8 10 13 14 13 12 11 11 11 12 13 14 15 15 16 16 17 18 18 18 19
17 18 19 19 18 17 17 19 21 20 17 16 16 16 16 16 16 14 17 19 17 14 15 14 13 14 18 21 21 21 21 20 19 19 20 20 20 19 15 10 10 11 10 10 11 11 8 4 2 2 4 4 4 5 5 5 8 9 8 7 8 8 10 9 11 11 12 12 10 9 9 10 11 11 12 14 15 16 16 17 17 18 18 18 19
19 21 22 20 18 17 17 18 19 17 14 14 14 15 15 14 13 13 16 17 14 13 14 14 13 15 20 24 24 23 22 20 17 17 19 19 19 17 15 12 11 11 12 11 8 8 6 5 4 5 6 6 7 8 8 7 9 10 8 6 6 7 8 10 11 11 9 8 8 8 9 9 10 11 13 14 15 16 17 16 17 18 18 18 19
20 22 21 19 18 18 17 16 16 15 14 13 13 13 12 12 12 12 14 15 14 14 14 13 14 16 20 22 22 22 21 18 15 14 16 16 16 15 15 14 13 13 14 12 9 8 6 6 8 9 9 10 9 9 10 11 13 11 7 2 3 5 7 9 11 11 9 8 7 8 8 8 9 11 13 14 15 16 15 15 17 17 17 18 19
19 18 17 18 19 18 16 14 14 14 13 12 12 12 12 12 12 12 12 12 13 13 13 13 14 16 18 19 19 20 18 15 15 15 15 15 15 14 14 14 14 14 14 11 10 10 9 8 9 10 10 10 10 10 11 11 11 7 3 1 3 6 8 9 10 9 8 7 7 6 6 7 9 12 13 14 15 14 14 16 17 16 17 18 18
16 14 14 15 16 14 13 13 13 12 11 11 11 11 12 12 12 12 12 11 10 12 15 14 12 13 16 17 18 19 17 13 12 14 16 15 14 14 13 14 15 15 12 8 7 9 10 9 9 9 9 9 11 13 12 9 5 3 2 2 4 6 7 8 8 8 8 7 6 6 6 8 10 11 12 13 14 14 14 16 15 16 17 17 18
14 12 12 13 12 11 11 11 11 11 12 12 12 11 10 10 9 9 9 9 8 10 16 16 11 12 16 17 16 19 19 15 11 11 13 14 13 13 14 14 13 11 8 7 8 9 9 9 8 8 7 6 6 7 8 6 3 2 2 2 4 6 7 8 7 7 6 5 5 6 7 8 10 11 11 13 13 13 14 15 14 16 17 16 17
11 11 11 11 11 11 11 10 11 13 15 14 12 9 8 8 8 7 8 8 7 7 13 16 13 12 16 17 16 18 19 17 14 11 11 12 13 14 15 14 12 10 9 10 10 9 8 6 5 6 6 6 5 4 4 5 4 3 3 3 5 7 7 6 5 4 3 3 5 6 8 9 9 10 11 12 12 13 14 14 14 15 16 16 17
10 10 11 10 9 9 9 8 10 11 11 9 9 8 7 7 7 6 6 7 6 6 8 13 14 13 13 14 14 14 15 15 14 12 12 12 13 14 13 12 11 12 12 10 8 7 6 6 6 6 6 5 4 4 4 5 5 5 5 6 7 7 6 4 3 1 1 2 3 5 6 8 10 10 11 12 12 12 13 14 14 14 14 16 18
9 9 10 9 9 9 8 7 7 8 9 8 8 8 7 6 6 6 5 6 6 5 6 8 10 12 12 13 12 11 11 11 12 12 12 12 12 11 11 11 10 11 11 10 8 7 7 9 9 7 6 4 4 6 6 5 5 5 6 7 8 8 7 6 5 4 3 3 5 6 7 8 10 11 11 11 11 12 13 13 13 14 14 16 18
8 7 7 8 8 9 8 7 7 8 7 7 7 6 6 6 6 6 5 5 5 6 6 7 9 11 11 12 13 12 11 11 10 9 10 11 11 10 10 12 12 12 11 10 10 10 9 9 9 7 6 6 6 7 7 7 6 5 6 8 9 10 10 10 9 9 10 10 11 10 9 8 9 11 11 11 11 12 13 12 12 13 15 16 18
4 4 5 6 7 8 8 7 7 7 6 6 6 6 6 6 6 5 6 6 7 8 10 12 13 13 12 12 13 14 14 14 13 10 9 10 10 9 9 11 13 13 12 11 12 12 11 9 7 5 5 6 7 8 8 7 6 7 8 9 9 9 10 11 11 11 13 13 11 9 7 7 9 10 10 10 11 11 11 11 12 14 15 17 17
7 7 6 7 7 7 6 6 6 6 6 6 6 6 6 6 5 6 8 9 10 12 14 13 12 12 14 15 15 14 13 13 13 12 11 11 11 10 11 12 13 13 13 12 11 10 10 10 7 5 5 6 8 8 8 7 8 9 10 10 9 9 10 10 11 11 11 10 9 8 7 7 7 8 9 10 10 10 10 11 12 14 16 16 16
7 5 4 5 6 6 6 6 6 5 4 4 5 6 7 6 8 10 11 11 10 10 9 6 3 3 6 7 5 5 6 7 8 9 9 9 9 9 10 12 13 13 14 13 10 7 8 9 8 7 7 8 8 8 8 9 10 11 11 10 9 10 11 11 11 12 11 9 8 8 7 6 6 8 10 10 9 9 10 12 12 14 16 15 14
Wind_Direction
187 187 188 190 191 192 192 190 188 188 191 192 189 188 190 191 193 194 193 194 196 198 199 200 200 199 197 196 194 193 194 196 199 200 200 203 206 208 210 213 218 220 223 223 221 225 228 225 225 226 229 236 243 247 247 243 242 244 247 242 238 245 252 252 259 277 284 284 285 289 294 293 289 287 286 279 271 267 265 265 268 270 270 272 272
189 188 188 190 192 192 191 190 189 189 191 191 188 189 193 195 195 195 196 197 199 201 202 202 201 199 197 196 194 194 195 196 198 199 200 202 206 208 212 215 215 215 218 221 222 227 233 238 240 236 235 240 240 243 247 245 243 250 252 246 246 260 268 270 281 292 294 295 297 299 302 300 293 292 295 293 289 285 277 270 270 271 271 271 271
189 188 188 191 193 192 191 190 190 192 191 189 188 192 195 197 198 198 198 200 202 204 205 204 201 199 198 197 196 195 196 196 198 198 199 203 206 208 212 216 217 215 216 219 219 222 226 231 235 235 234 239 241 240 242 246 247 251 257 264 273 278 272 278 293 296 292 293 295 296 299 299 296 296 297 294 290 290 286 280 277 275 273 272 270
188 186 188 192 193 192 191 190 192 192 190 187 191 196 198 198 200 201 201 203 205 207 207 204 201 200 199 198 196 195 195 196 197 198 200 203 205 206 208 214 219 220 220 220 219 218 221 224 227 230 230 235 243 243 241 248 251 249 254 262 268 272 272 271 270 271 275 281 286 291 296 297 295 295 295 290 286 287 284 281 281 280 278 277 273
188 187 188 191 193 192 191 193 194 192 190 191 194 197 198 198 202 204 204 206 207 208 207 205 202 201 199 199 197 196 195 196 197 198 200 202 203 204 207 211 216 219 219 219 217 215 216 218 222 224 225 230 235 239 243 249 253 257 261 262 260 271 282 282 277 274 273 274 280 290 295 293 290 292 291 285 282 285 283 280 283 283 282 282 279
189 187 188 191 192 192 193 195 195 192 192 195 196 197 199 199 201 204 206 207 208 207 207 205 204 203 201 199 198 196 195 196 197 197 198 200 202 204 207 212 216 218 218 218 217 216 215 215 217 217 219 228 229 228 233 239 247 258 263 264 272 287 296 297 293 287 280 275 276 282 286 285 284 286 286 282 278 280 281 284 287 286 283 283 282
189 187 188 191 191 192 195 196 194 193 195 197 198 199 200 200 202 204 206 207 207 207 207 207 206 204 202 200 198 196 195 195 197 197 197 199 202 204 207 212 216 218 219 220 219 218 216 215 216 217 222 229 228 221 222 229 240 249 251 255 268 283 292 293 291 285 278 274 272 271 272 275 279 281 284 285 280 276 276 280 287 289 286 284 282
188 186 188 191 191 192 195 195 193 194 196 198 199 201 202 203 205 206 206 207 207 207 208 208 206 204 202 201 199 197 196 195 196 196 197 199 201 204 207 211 215 217 218 219 218 217 216 215 216 219 222 223 222 220 220 225 230 233 237 246 255 265 276 282 281 276 270 269 268 267 269 275 280 282 285 287 280 276 275 275 278 283 285 284 284
187 185 188 192 192 192 194 194 195 196 196 198 200 202 204 206 206 206 207 208 209 209 208 207 204 202 202 201 199 199 198 197 197 196 196 198 200 202 207 211 213 216 216 216 215 215 214 213 215 220 223 223 223 224 222 220 221 226 234 245 253 263 272 276 273 267 263 262 264 267 270 273 276 279 283 283 279 280 282 280 278 280 285 287 288
188 187 189 191 191 191 192 194 195 196 197 198 201 203 205 206 207 207 209 210 210 209 207 205 204 203 201 200 199 198 198 198 198 198 198 198 198 200 206 211 213 215 215 213 213 215 215 215 219 226 229 227 226 227 227 226 227 231 238 245 253 261 266 267 266 263 260 260 262 266 269 269 273 279 283 285 286 287 289 290 290 293 297 297 295
189 191 191 190 190 190 191 193 194 196 198 200 203 205 206 207 207 208 209 211 211 210 207 204 203 202 200 197 196 196 198 200 201 201 200 200 199 199 205 210 212 215 215 211 212 215 216 218 224 230 234 234 234 235 235 237 239 242 248 253 259 264 265 264 263 262 261 262 264 266 268 271 276 281 284 286 287 288 291 295 296 297 299 297 295
189 192 192 191 190 190 191 191 193 195 198 201 204 206 208 208 209 211 211 211 210 208 206 204 201 200 199 196 195 197 200 202 203 202 201 201 200 200 205 209 211 213 214 214 215 216 218 221 226 232 237 240 243 244 244 245 249 253 258 261 264 267 268 266 263 263 263 265 266 265 268 274 278 280 282 286 287 288 292 294 294 294 293 291 288
187 190 190 189 189 189 189 188 190 194 198 201 204 205 205 206 209 209 208 206 204 201 201 202 200 199 201 200 199 201 202 203 205 202 201 203 202 199 204 210 210 211 213 214 216 217 219 221 222 228 238 244 247 250 251 253 256 258 261 263 264 265 267 266 264 263 264 265 264 264 269 274 275 276 281 287 290 293 295 296 295 293 291 288 286
184 186 185 185 187 186 185 185 187 191 194 197 199 197 198 202 204 202 199 198 198 197 198 203 206 206 206 205 203 203 202 204 206 202 200 204 205 203 205 209 210 211 213 214 215 217 220 224 225 226 231 240 247 251 254 255 257 259 261 262 263 265 267 268 269 268 268 267 264 265 271 275 276 279 285 287 286 288 293 293 293 291 288 286 286
181 182 180 179 178 175 175 179 184 187 189 191 192 194 198 202 201 196 193 191 194 196 198 203 208 209 207 206 204 205 205 206 205 201 201 206 208 209 211 212 213 216 215 210 210 217 223 226 227 224 225 235 246 252 255 255 253 252 254 256 260 265 267 270 272 273 272 270 268 272 279 282 280 280 279 274 275 286 292 292 290 288 286 285 285
175 173 168 165 166 167 170 173 174 177 180 184 190 196 201 204 202 199 195 192 194 198 198 199 200 201 204 206 206 206 209 210 205 202 204 208 211 215 216 215 216 219 217 215 218 225 228 227 228 232 237 243 251 256 256 253 248 247 249 252 257 262 266 270 273 274 273 273 277 280 280 278 277 276 274 276 287 296 296 290 286 283 280 280 280
168 164 159 156 159 165 169 170 168 170 175 179 186 194 198 199 202 202 198 196 194 190 188 191 196 197 200 204 206 207 210 213 210 206 205 206 210 215 216 215 217 221 223 226 230 229 229 231 237 244 247 248 253 259 257 250 245 245 248 253 258 264 270 274 277 279 277 278 282 283 279 278 280 284 286 289 294 295 286 276 277 277 273 270 270
165 160 156 158 160 162 166 170 171 173 176 180 183 188 193 197 201 202 201 201 200 195 193 196 196 193 194 199 205 209 213 217 215 210 206 206 209 215 216 214 217 223 226 226 226 226 231 239 239 238 243 248 253 256 254 249 246 247 250 257 265 269 274 278 280 284 286 287 291 291 290 291 291 291 293 292 291 286 273 269 273 271 263 261 269
165 160 154 156 157 158 164 170 173 174 178 184 189 192 195 198 201 201 200 200 199 198 200 198 191 189 194 201 205 210 218 223 217 211 209 208 209 214 216 214 215 220 220 215 218 224 233 239 237 235 241 247 247 248 252 253 252 250 251 261 268 270 273 279 285 293 293 292 296 297 296 295 293 292 293 292 293 291 284 279 277 269 260 263 274
165 160 151 150 154 161 168 170 171 173 176 182 188 190 188 187 187 187 187 192 194 194 194 191 186 188 196 200 201 206 215 220 216 211 211 212 213 213 213 210 208 209 210 214 220 225 233 240 241 242 247 248 246 249 256 259 256 251 250 259 267 267 271 277 285 294 297 296 300 301 298 295 291 289 291 297 301 301 297 294 288 274 265 271 281
162 157 151 147 150 158 164 165 166 170 175 179 182 184 181 180 179 177 179 188 193 190 184 180 181 190 197 197 196 201 207 211 213 214 216 218 218 214 210 207 205 205 210 220 224 227 235 240 239 238 241 242 245 249 254 256 258 256 254 254 258 263 271 281 289 296 300 300 299 297 293 294 295 296 299 302 302 301 302 307 309 297 292 299 306
154 152 150 148 147 153 161 165 167 170 173 175 176 177 179 180 180 180 181 183 182 180 178 177 181 187 190 192 195 201 208 211 212 216 221 222 219 216 212 208 208 210 212 218 224 230 234 232 226 227 230 231 233 240 248 256 260 259 258 260 263 268 275 284 291 295 297 295 292 288 289 298 304 305 303 301 300 303 308 313 312 308 308 309 308
148 149 152 153 154 159 163 165 166 166 169 172 172 172 174 175 176 178 181 182 179 176 173 173 177 177 175 183 195 203 208 211 211 215 220 220 219 219 216 211 212 214 213 214 221 225 221 214 213 217 221 222 228 240 252 261 261 260 263 266 269 274 280 286 290 293 292 288 283 284 294 304 308 307 307 309 310 311 312 311 307 305 304 302 298
143 147 153 153 154 155 156 157 158 161 166 168 167 169 172 173 175 178 183 183 178 171 167 168 174 174 169 176 189 193 192 196 201 208 215 216 214 215 214 212 209 205 204 210 215 204 199 202 206 208 213 219 231 245 256 262 262 261 264 265 267 276 284 286 285 283 280 282 288 300 311 316 316 314 316 318 317 314 312 310 306 302 298 295 294
139 142 143 142 144 147 146 146 148 155 163 164 163 167 170 169 168 167 169 169 163 160 163 168 175 176 167 169 178 175 170 180 194 202 209 213 210 206 209 210 207 197 196 209 216 206 202 203 199 200 209 220 233 248 256 258 258 258 262 264 268 280 286 282 280 277 275 281 301 313 313 311 311 312 313 312 312 310 308 304 299 296 296 298 300
134 135 135 137 142 144 140 139 140 146 157 163 162 162 159 153 151 150 151 154 155 159 163 164 172 181 180 180 177 165 161 175 192 198 203 209 210 208 208 210 210 210 208 209 210 206 200 197 198 203 218 235 245 251 248 246 251 260 267 268 268 271 271 270 269 266 264 272 289 299 299 298 302 307 308 307 305 303 300 299 299 301 304 305 304
131 133 135 139 144 145 142 141 141 147 161 168 162 153 150 147 144 147 158 164 164 169 174 173 177 183 190 188 171 156 157 172 185 192 198 203 206 207 205 204 206 209 207 201 197 195 194 197 207 223 239 243 242 239 236 240 250 257 259 259 257 255 260 268 265 256 259 272 283 285 287 295 305 310 308 304 301 301 303 304 303 304 305 305 301
131 134 137 139 142 145 144 143 146 157 172 176 165 154 156 155 149 154 175 182 176 177 180 180 180 180 187 189 165 148 151 169 183 192 199 200 200 197 194 195 198 197 196 195 193 193 198 205 219 235 235 228 223 221 227 239 247 247 252 259 256 250 255 265 264 262 267 275 278 277 288 311 317 313 308 302 301 303 306 306 304 305 304 301 295
132 136 139 139 143 145 144 149 157 163 162 153 143 144 156 159 153 154 164 170 173 180 180 179 182 181 183 186 167 150 153 173 190 200 203 201 201 195 189 192 195 190 188 194 197 198 204 210 214 214 209 206 208 210 219 233 236 235 242 248 244 246 258 262 263 273 285 294 301 310 322 326 319 309 304 302 302 305 308 308 306 304 301 297 290
136 140 141 144 148 149 150 158 163 158 145 136 129 125 129 144 152 154 145 137 152 169 167 159 161 152 151 165 165 161 165 177 190 200 199 195 196 192 186 191 194 188 187 193 194 194 199 204 205 202 203 211 220 223 234 241 236 231 238 240 239 255 271 271 292 342 354 353 346 337 328 320 313 305 301 300 302 307 310 308 305 304 303 300 296
142 146 149 152 154 155 158 161 157 146 143 144 138 126 117 121 136 147 146 136 141 154 155 153 147 116 106 141 158 164 171 180 188 194 190 186 188 188 186 190 192 189 189 189 188 194 206 213 218 220 222 234 245 249 254 259 256 256 265 268 278 286 285 286 3 4 0 352 342 333 322 312 303 298 297 300 305 310 310 308 310 309 306 302 302
150 152 153 153 154 158 161 160 154 146 145 147 145 137 130 122 121 130 142 147 151 155 160 170 170 153 147 154 156 158 165 174 182 186 185 185 188 189 189 192 192 190 188 185 187 206 225 233 241 245 243 253 263 266 269 272 281 293 289 279 285 290 292 41 15 358 358 347 330 313 300 297 295 297 304 310 312 310 309 311 314 311 307 308 314
151 151 148 147 153 162 164 159 155 151 148 148 149 148 145 138 130 132 140 152 166 172 174 181 177 163 161 163 160 157 158 165 176 183 185 188 191 187 186 187 184 183 185 186 195 222 237 242 253 257 256 265 269 269 267 257 264 290 297 293 293 293 298 40 15 4 356 333 308 293 294 302 308 312 315 312 308 307 312 316 315 313 314 320 321
145 145 145 148 157 166 160 153 153 149 147 151 156 159 163 165 160 156 153 155 166 179 184 184 179 169 159 157 158 158 159 165 176 185 188 189 188 184 180 179 178 182 188 192 208 234 242 247 264 272 279 290 295 298 305 299 282 303 306 308 308 301 294 14 18 3 346 323 306 305 313 316 315 312 307 305 306 312 317 318 315 318 325 325 320
135 138 143 151 163 166 156 155 155 148 147 155 161 166 177 182 171 169 173 172 166 163 164 169 171 170 166 160 157 159 165 169 176 184 187 187 185 181 177 175 178 187 197 202 215 236 249 259 270 284 312 344 2 4 353 345 332 315 309 314 314 310 314 19 34 6 339 325 318 317 315 309 304 304 303 307 314 319 320 318 320 324 326 321 316
137 139 145 156 165 160 150 153 152 143 144 153 159 170 184 183 169 169 179 175 159 150 155 163 165 166 171 172 168 166 169 173 177 180 183 184 183 181 179 178 181 189 198 207 218 228 232 235 248 291 339 350 342 328 320 309 297 287 288 302 314 322 340 10 21 346 318 313 312 307 300 296 298 304 308 314 320 320 318 320 325 326 321 316 315
141 142 146 155 162 151 144 148 149 144 148 156 164 176 184 177 168 171 173 165 155 152 158 162 160 158 165 171 172 171 173 174 176 177 177 180 184 185 183 185 191 194 196 204 215 222 222 224 230 264 290 288 295 296 292 292 292 293 295 299 303 316 340 347 337 313 301 300 299 289 282 289 303 312 316 319 318 318 322 326 326 321 317 318 320
140 143 146 153 156 148 142 144 147 150 157 163 169 178 183 180 181 177 163 153 153 153 155 160 159 159 164 167 167 170 170 168 169 174 177 181 187 188 189 198 209 207 203 206 213 217 218 214 200 205 246 266 275 266 267 295 314 323 328 318 305 336 7 338 307 291 283 282 281 278 284 302 314 316 318 319 318 320 325 324 320 317 318 322 324
142 149 148 148 148 144 140 140 144 152 165 169 169 175 180 185 191 178 152 146 152 153 153 158 161 163 168 167 164 165 165 163 167 174 180 186 192 193 197 211 221 218 219 220 214 205 196 182 174 215 239 256 261 254 268 313 324 318 312 302 305 332 346 327 300 284 274 270 277 291 304 311 314 317 320 320 318 319 319 316 317 320 322 323 324
140 141 140 141 141 141 141 141 142 152 167 170 168 174 179 183 188 171 147 144 150 152 154 159 161 168 173 171 168 167 166 166 173 180 184 192 198 199 205 217 221 217 219 220 204 183 176 186 204 217 227 234 242 249 257 277 292 289 280 277 296 313 314 300 291 288 283 281 294 307 307 308 316 323 321 316 314 312 312 315 321 324 324 324 326
131 133 137 143 143 140 141 145 150 160 169 169 169 174 174 169 169 160 149 150 156 156 156 159 164 174 180 178 176 176 174 172 178 185 188 195 201 203 210 219 221 220 221 216 195 178 187 204 208 213 224 229 233 238 243 249 257 259 256 268 314 300 286 280 279 280 282 285 293 297 300 311 323 320 312 310 311 313 317 323 325 324 326 329 329
135 136 137 140 142 144 151 158 160 164 167 166 166 168 163 156 155 155 156 163 165 156 149 151 163 179 187 186 183 182 178 178 185 189 188 193 201 207 214 220 223 227 227 216 192 186 199 212 213 215 223 228 231 238 247 251 250 239 218 275 298 278 272 274 276 281 290 294 296 302 314 324 321 312 307 309 314 320 325 325 323 326 330 330 328
138 134 131 137 142 147 154 156 154 158 164 161 155 153 150 148 152 158 165 172 167 147 139 142 157 177 184 187 189 188 186 190 197 195 191 192 196 203 211 218 223 226 222 203 183 188 201 215 225 230 234 238 241 241 243 248 249 218 191 243 264 262 268 275 280 291 299 301 308 325 330 321 313 309 311 315 320 325 325 322 324 331 331 329 329
136 137 142 145 135 126 132 137 135 133 133 128 126 132 138 141 149 156 159 167 170 150 141 144 159 176 176 180 191 197 199 208 218 212 204 200 197 201 210 219 224 224 211 200 205 207 207 216 232 238 236 243 249 238 229 228 229 199 195 232 251 257 265 268 270 281 297 315 335 335 324 315 312 312 314 319 322 322 321 323 329 331 329 330 332
137 138 143 139 127 127 135 132 120 118 118 117 119 130 138 143 153 160 160 167 185 172 148 144 153 168 174 181 194 203 209 218 227 227 221 215 210 210 213 217 221 219 210 207 209 208 207 221 249 259 253 255 267 264 254 264 271 248 225 238 243 245 257 269 276 287 308 331 332 319 310 310 312 312 313 317 319 320 322 325 327 328 329 333 330
134 133 136 136 134 136 132 118 115 125 132 134 137 146 154 157 160 166 170 172 183 183 161 153 157 165 174 185 196 204 211 218 225 230 232 231 227 221 214 212 215 213 205 200 203 206 208 218 239 266 277 271 257 244 251 266 265 243 229 232 236 240 252 267 272 285 323 328 326 318 312 313 312 308 310 314 317 320 323 322 323 328 333 332 325
104 116 130 134 132 128 121 117 133 147 148 148 152 160 169 171 169 176 180 172 170 180 181 173 171 173 177 183 191 199 209 217 225 232 234 237 240 231 212 202 205 204 195 193 206 221 216 207 215 242 273 277 242 227 229 233 237 239 236 231 227 229 234 232 220 216 232 259 283 290 296 305 307 305 309 316 318 319 320 320 325 332 334 327 322
90 109 133 140 138 138 139 147 162 164 158 159 167 172 177 185 192 193 182 165 170 193 208 209 203 196 192 192 194 198 205 213 221 226 225 229 239 237 213 197 197 200 196 198 209 218 214 202 198 210 234 244 236 225 220 221 229 239 239 227 217 218 227 231 236 250 267 280 288 290 292 299 301 300 307 313 312 313 318 323 328 332 327 320 320
138 165 175 165 158 157 159 163 171 175 176 179 185 192 200 205 203 189 176 179 196 210 219 221 214 202 195 196 198 199 200 202 205 211 217 218 223 226 214 201 200 202 203 207 215 216 210 204 197 193 210 237 241 230 223 229 236 235 232 227 222 226 236 243 254 270 283 289 291 287 283 287 291 295 305 310 307 312 322 326 326 325 320 316 320
170 188 190 179 174 178 181 180 183 195 210 210 205 201 201 199 197 198 199 203 211 218 224 229 223 205 197 200 202 200 199 198 198 205 215 216 215 215 210 202 201 203 205 213 221 212 191 187 195 206 220 239 245 237 231 235 233 229 231 233 234 240 249 256 269 284 293 296 290 277 266 271 284 295 303 306 307 316 326 325 320 318 314 313 321
164 174 179 184 188 193 198 200 201 212 234 237 216 199 190 192 209 216 211 207 214 224 227 233 240 217 212 219 222 220 225 229 223 219 221 222 222 219 207 196 198 204 208 213 222 212 184 183 192 202 216 236 245 241 239 239 233 231 237 242 244 252 262 270 282 294 301 304 299 281 258 251 275 294 301 306 312 319 321 319 316 313 311 313 323